{"data":{"norad_id":56689,"epoch":"2026-09-20T08:48:34.246656Z","epoch_age_seconds":126394,"freshness":"FRESH","line1":"1 56689U 23067B   26263.36706304 -.00001084  00000+0 -29870-4 0  9994","line2":"2 56689  43.0026 261.8021 0001476 265.2173  94.8510 15.27574230185350","mean_motion":15.2757423,"eccentricity":0.0001476,"inclination_deg":43.0026,"raan_deg":261.8021,"arg_perigee_deg":265.2173,"mean_anomaly_deg":94.851,"bstar":-2.987e-5,"rev_number":18535,"period_min":94.267104780892,"perigee_km":482.05365993185,"apogee_km":484.07908716772,"semimajor_km":6861.2033735498,"source":"CELESTRAK","updated_at":"2026-09-21T09:00:33.480932Z"}}